Weather in Kapustyntsi

Ukraine / Kyiv Region     50°04′22″N   31°52′39″E
temp.,
°C
wind,
m/s
gust,
m/s
humid.,
%
clouds,
%
prec.,
mm/h
press.,
hPa
HPBL,
m
27 september, mon
mon2700:00+11nw410636 0.0 1020254
03:00+10nnw49675 0.0 1021333
06:00+7nnw38920 0.0 1022239
09:00+9n57781 0.0 1022446
12:00+13nne556117 0.0 1023972
15:00+14nne455551 0.0 10221322
18:00+12nne4764100 0.1 1022624
21:00+9n497942 0.2 1023218
28 september, tue
tue2800:00+8nne35915 0.0 1023106
03:00+7nne34955 0.0 102476
06:00+6nne36955 0.0 1024119
09:00+9nne468085 0.0 1025338
12:00+13ne455962 0.0 10251282
15:00+15ne455081 0.3 10251630
18:00+12ne587183 0.2 1026535
21:00+10ne3879100 0.3 1028421
29 september, wed
wed2900:00+10ne4879100 0.1 1029435
03:00+9ene4877100 0.1 1030402
06:00+6ene37905 0.0 1031213
09:00+8ene5778100 0.0 1032613
12:00+11e566177 0.0 10321164
15:00+11ene4554100 0.1 10321385
18:00+11ene4552100 0.0 1032345
21:00+10ene365393 0.0 1032134
30 september, thu
thu3000:00+6ene34692 0.0 103365
03:00+5e34675 0.0 103359
06:00+4e35685 0.0 103472
09:00+8e46545 0.0 1034255
12:00+12ese44398 0.0 10341034
15:00+14ese34335 0.0 10331366
18:00+12e33455 0.0 103343
21:00+8ese34555 0.0 103456
1 october, fri
fri100:00+7ese34585 0.0 103551
03:00+6ese34605 0.0 103544
06:00+5ese34600 0.0 103544
09:00+9se35490 0.0 1035207
12:00+14se44362 0.0 10351082
15:00+15se34325 0.0 10341463
18:00+12se23435 0.0 103330
21:00+9ese33515 0.0 103425